Location: Misciano
(43.5000°N, 11.9500°E)
Time: 16:19:46
(UTC+00:00)

SL-16 R/B - Pass Details

Date: 13 August 2020
Orbit: 841 x 849 km, 71.0° (Epoch: 23 September)

Event Time Altitude Azimuth Distance (km) Brightness Sun altitude
Rises 22:37:49 0° 344° (NNW) 3,423 6.5 -31.5°
Reaches altitude 10° 22:40:59 10° 1° (N) 2,483 5.5 -31.6°
Maximum altitude 22:45:06 20° 48° (NE) 1,866 4.2 -31.7°
Enters shadow 22:46:46 18° 70° (ENE) 1,977 4.2 -31.8°
